Regional Weather Roundup
Issued by NWS Bismarck, ND

Home | Current Version | Previous Version | Text Only | Print | Product List | Glossary On
Versions: 1 2 3 4 5 6 7 8 9 10 11 12 13 14 15 16 17 18 19 20 21 22 23 24 25 26 27 28 29 30 31 32 33 34 35 36 37 38 39 40 41 42 43 44 45 46 47 48 49 50
000
ASUS43 KBIS 272359
RWRBIS

NWR BROADCAST TEXT
NATIONAL WEATHER SERVICE BISMARCK ND
700 PM CDT WED AUG 27 2014

NOTE: "FAIR" INDICATES FEW OR NO CLOUDS BELOW 12,000 FEET WITH NO
SIGNIFICANT WEATHER AND/OR OBSTRUCTIONS TO VISIBILITY.


CITY           SKY/WX    TMP DP  RH WIND       PRES   REMARKS
WILLISTON      SUNNY     82  53  36 S9        29.96F
MINOT          SUNNY     76  54  46 S12       30.00F
MINOT AFB      NOT AVBL
BISMARCK       MOSUNNY   76  62  62 S12       30.04F
DICKINSON      NOT AVBL
GARRISON         N/A     75  59  57 S9        30.01F
HETTINGER ARPT PTSUNNY   72  61  68 SE10      30.06S
JAMESTOWN      NOT AVBL
BEACH            N/A     75  54  46 S9        30.02F
CARRINGTON     FAIR      72  63  73 S9        30.07F
CROSBY         FAIR      77  54  44 S13G18    29.95F
HARVEY         FAIR      75  57  53 S8        30.04F
HAZEN          FAIR      75  55  50 S8        30.02F
LINTON         CLOUDY    68  61  77 SE6       30.06S
MANDAN         FAIR      73  63  68 S8        30.05F
OAKES            N/A     72  64  78 E8        30.07F
RUGBY          FAIR      73  57  56 S8        30.03F
STANLEY        FAIR      73  57  56 S13       30.00F
TIOGA          FAIR      77  54  44 S14       30.02F
WATFORD CITY   FAIR      81  50  34 S10       29.96F
$$

CITY           SKY/WX    TMP DP  RH WIND       PRES   REMARKS
GRAND FORKS    MOSUNNY   73  58  59 S7        30.07F
GRAND FORKS AF NOT AVBL
DEVILS LAKE    MOSUNNY   73  57  56 S10       30.05F
FARGO          MOSUNNY   73  59  61 S9        30.08F
CAVALIER       FAIR      72  55  56 S8        30.06F
GRAFTON        FAIR      72  55  56 S10       30.07F
GWINNER        MOCLDY    72  61  68 E7        30.09F
LANGDON        FAIR      72  55  56 S10       30.07F
ROLLA          FAIR      70  55  60 S9        30.06S
WALHALLA         N/A     73  54  49 S8        30.06S
$$

CITY           SKY/WX    TMP DP  RH WIND       PRES   REMARKS
ABERDEEN       CLOUDY    72  61  68 E10       30.06F
MOBRIDGE       PTSUNNY   71  65  81 E5        30.01F
RAPID CITY     CLOUDY    69  62  78 SE6       30.06S
GLASGOW        SUNNY     84  47  27 SW9       29.91S
SIDNEY         SUNNY     82  57  42 SE8       29.96F
WOLF POINT     SUNNY     87  52  29 SW7       29.91S
GLENDIVE       MOSUNNY   81  52  36 S10       29.99S
MILES CITY     PTSUNNY   84  48  28 SE8       29.97S
BAKER          PTSUNNY   79  54  41 SE9       30.03F
$$

CITY           SKY/WX    TMP DP  RH WIND       PRES   REMARKS
BILLINGS       MOSUNNY   84  44  24 S6        30.01S
GREAT FALLS    SUNNY     84  42  22 W12       30.01S
$$



USA.gov is the U.S. government's official web portal to all federal, state and local government web resources and services.